Weather History for KFTG - June, 2013

Change the Weather History Date:

Wednesday, June 12, 2013

  Actual Average (KDEN) Record (KDEN)
Temperature  
Mean Temperature 74 °F 66 °F  
Max Temperature 93 °F 81 °F 97 °F (1952)
Min Temperature 55 °F 51 °F 33 °F (1947)
Degree Days  
Heating Degree Days 0 2  
Month to date heating degree days 40  
Since 1 June heating degree days 40  
Since 1 July heating degree days 6036  
Cooling Degree Days 9 4  
Month to date cooling degree days 34  
Year to date cooling degree days 56  
Since 1 June cooling degree days 34  
Growing Degree Days 24 (Base 50)    
Moisture  
Dew Point 28 °F    
Average Humidity 19    
Maximum Humidity 38    
Minimum Humidity 9    
Precipitation  
Precipitation 0.00 in 0.06 in 0.98 in (1942)
Month to date precipitation 0.87  
Year to date precipitation 6.40  
Snow  
Snow 0.00 in - - ()
Month to date snowfall  
Since 1 June snowfall  
Since 1 July snowfall  
Snow Depth -    
Sea Level Pressure  
Sea Level Pressure 30.14 in    
Wind  
Wind Speed 8 mph (SE)    
Max Wind Speed 24 mph    
Max Gust Speed 30 mph    
Visibility 10 miles    
Events      
T = Trace of Precipitation, MM = Missing Value Source: NWS Daily Summary

Daily Weather History Graph

Daily Weather History Graph

Search for Another Location

Airport or City:

Trip Planner

Search our weather history database for the weather conditions in past years. The results will help you decide how hot, cold, wet, or windy it might be!

Date:

Astronomy

Jun. 12, 2013 Rise Set
Actual Time 5:29 AM MDT 8:26 PM MDT
Civil Twilight 4:56 AM MDT 8:59 PM MDT
Nautical Twilight 4:15 AM MDT 9:40 PM MDT
Astronomical Twilight 3:27 AM MDT 10:28 PM MDT
Moon 9:10 AM MDT (6/12) 11:04 PM MDT (6/12)
Length of Visible Light 16h 02m
Length of Day
14h 57m
Waxing Crescent, 14% of the Moon is Illuminated
Jun 12
Waxing Crescent
Jun 16
First Quarter
Jun 23
Full
Jun 29
Last Quarter
Jul 8
New

Hourly Weather History & Observations

Time (MDT) Temp. Dew Point Humidity Pressure Visibility Wind Dir Wind Speed Gust Speed Precip Events Conditions
12:17 AM 75.2 °F 24.8 °F 15% 30.06 in 10.0 mi North 11.5 mph - N/A   Clear
12:37 AM 73.4 °F 24.8 °F 16% 30.08 in 10.0 mi North 12.7 mph 17.3 mph N/A   Clear
12:58 AM 71.6 °F 24.8 °F 17% 30.08 in 10.0 mi North 9.2 mph - N/A   Clear
1:18 AM 69.8 °F 26.6 °F 20% 30.09 in 10.0 mi North 5.8 mph - N/A   Clear
1:38 AM 68.0 °F 26.6 °F 21% 30.09 in 10.0 mi North 6.9 mph - N/A   Clear
1:58 AM 68.0 °F 26.6 °F 21% 30.10 in 10.0 mi Calm Calm - N/A   Clear
2:18 AM 69.8 °F 23.0 °F 17% 30.10 in 10.0 mi NNE 4.6 mph - N/A   Clear
2:38 AM 69.8 °F 23.0 °F 17% 30.10 in 10.0 mi Calm Calm - N/A   Clear
2:58 AM 68.0 °F 21.2 °F 17% 30.11 in 10.0 mi Calm Calm - N/A   Clear
3:18 AM 68.0 °F 21.2 °F 17% 30.11 in 10.0 mi Calm Calm - N/A   Clear
3:37 AM 64.4 °F 23.0 °F 21% 30.12 in 10.0 mi NNW 5.8 mph - N/A   Clear
3:58 AM 64.4 °F 23.0 °F 21% 30.12 in 10.0 mi NNW 5.8 mph - N/A   Clear
4:18 AM 62.6 °F 24.8 °F 24% 30.13 in 10.0 mi SSW 3.5 mph - N/A   Clear
4:38 AM 60.8 °F 23.0 °F 23% 30.14 in 10.0 mi SW 4.6 mph - N/A   Clear
4:58 AM 62.6 °F 24.8 °F 24% 30.15 in 10.0 mi SW 5.8 mph - N/A   Clear
5:18 AM 60.8 °F 24.8 °F 25% 30.16 in 10.0 mi SSW 8.1 mph - N/A   Clear
5:38 AM 62.6 °F 24.8 °F 24% 30.16 in 10.0 mi SW 5.8 mph - N/A   Clear
5:58 AM 64.4 °F 24.8 °F 22% 30.17 in 10.0 mi WSW 4.6 mph - N/A   Clear
6:18 AM 55.4 °F 30.2 °F 38% 30.18 in 10.0 mi South 6.9 mph - N/A   Clear
6:38 AM 60.8 °F 32.0 °F 34% 30.19 in 10.0 mi South 4.6 mph - N/A   Clear
6:58 AM 66.2 °F 32.0 °F 28% 30.19 in 10.0 mi Calm Calm - N/A   Clear
7:18 AM 73.4 °F 30.2 °F 20% 30.19 in 10.0 mi SW 3.5 mph - N/A   Clear
7:37 AM 75.2 °F 26.6 °F 17% 30.20 in 10.0 mi West 3.5 mph - N/A   Clear
7:57 AM 77.0 °F 28.4 °F 17% 30.21 in 10.0 mi NNW 3.5 mph - N/A   Clear
8:00 AM 77.0 °F 28.4 °F 17% 30.21 in 10.0 mi NNW 4.6 mph - N/A   Clear
9:47 AM 80.6 °F 28.4 °F 15% 30.21 in 30.0 mi NE 5.8 mph - N/A   Mostly Cloudy
10:50 AM 84.2 °F 30.2 °F 14% 30.19 in 30.0 mi NE 8.1 mph - N/A   Mostly Cloudy
11:48 AM 86.0 °F 30.2 °F 13% 30.19 in 30.0 mi ESE 12.7 mph - N/A   Mostly Cloudy
12:47 PM 86.0 °F 30.2 °F 13% 30.18 in 30.0 mi ESE 11.5 mph 18.4 mph N/A   Mostly Cloudy
1:53 PM 89.6 °F 30.2 °F 12% 30.14 in 10.0 mi East 12.7 mph 20.7 mph N/A   Mostly Cloudy
3:48 PM 93.2 °F 30.2 °F 11% 30.10 in 8.0 mi ESE 18.4 mph 29.9 mph N/A   Smoke
4:47 PM 93.2 °F 30.2 °F 11% 30.07 in 8.0 mi East 17.3 mph 28.8 mph N/A   Smoke
5:55 PM 93.2 °F 26.6 °F 9% 30.07 in 8.0 mi SE 20.7 mph 28.8 mph N/A   Smoke
6:47 PM 91.4 °F 26.6 °F 10% 30.08 in 8.0 mi SE 18.4 mph 23.0 mph N/A   Smoke
8:58 PM 78.8 °F 32.0 °F 18% 30.12 in 10.0 mi SSE 8.1 mph - N/A   Clear
9:18 PM 78.8 °F 30.2 °F 17% 30.12 in 10.0 mi South 8.1 mph - N/A   Clear
9:38 PM 80.6 °F 28.4 °F 15% 30.12 in 10.0 mi SSE 8.1 mph - N/A   Clear
9:58 PM 82.4 °F 28.4 °F 14% 30.13 in 10.0 mi SSE 15.0 mph 21.9 mph N/A   Clear
10:18 PM 82.4 °F 28.4 °F 14% 30.12 in 10.0 mi SSE 15.0 mph - N/A   Clear
10:37 PM 84.2 °F 28.4 °F 13% 30.13 in 10.0 mi SSE 17.3 mph 25.3 mph N/A   Clear
10:58 PM 82.4 °F 28.4 °F 14% 30.14 in 10.0 mi SE 16.1 mph 20.7 mph N/A   Clear
11:18 PM 78.8 °F 32.0 °F 18% 30.15 in 10.0 mi ESE 18.4 mph 23.0 mph N/A   Scattered Clouds
11:38 PM 77.0 °F 41.0 °F 28% 30.14 in 10.0 mi ESE 18.4 mph 25.3 mph N/A   Clear
11:58 PM 75.2 °F 42.8 °F 31% 30.14 in 10.0 mi ESE 24.2 mph 27.6 mph N/A   Clear